Time,B instrument,Bx,By,Bz,sigma B,Ion instrument,Status,Tp_par,Tp_perp,carrot,r_sun,clat,clong,earth_he_angle,n_p,vp_x,vp_y,vp_z,vth_p_par,vth_p_perp
1980-10-30 00:10:39,-1,nan,nan,nan,nan,1,3,nan,nan,1701,0.69355363,-5.8482056,357.22168,93.241211,nan,513.504,18.0127,25.676,nan,nan
1980-10-30 00:53:51,-1,nan,nan,nan,nan,1,3,nan,nan,1701,0.69324565,-5.8513184,356.83932,93.253372,nan,530.031,29.6646,-1.76012,nan,nan
1980-10-30 01:37:03,-1,nan,nan,nan,nan,1,3,nan,nan,1701,0.69293028,-5.8545036,356.45337,93.265854,nan,535.508,37.2593,-14.3409,nan,nan
1980-10-30 02:20:15,-1,nan,nan,nan,nan,1,3,nan,nan,1701,0.69262201,-5.8576164,356.07108,93.278107,nan,569.008,60.7215,-15.2092,nan,nan
1980-10-30 03:03:27,-1,nan,nan,nan,nan,1,3,nan,nan,1701,0.69231349,-5.8607264,355.68881,93.290375,nan,606.044,49.2848,-54.1929,nan,nan
1980-10-30 03:17:43,-1,nan,nan,nan,nan,1,4,nan,nan,1701,0.69376183,-6.0314922,355.2663,93.000671,nan,nan,nan,nan,nan,nan
1980-10-30 04:44:14,-1,nan,nan,nan,nan,1,3,nan,nan,1701,0.6915881,-5.8680372,354.79593,93.319351,nan,555.944,3.11038,0.68385,nan,nan
1980-10-30 04:44:34,-1,nan,nan,nan,nan,1,3,nan,nan,1701,0.69313997,-6.0373802,354.49783,93.025177,nan,618.652,46.1225,-46.5739,nan,nan
1980-10-30 04:45:35,-1,nan,nan,nan,nan,1,3,nan,nan,1701,0.69158095,-5.8681097,354.78448,93.319641,nan,594.933,39.9305,-32.0941,nan,nan
1980-10-30 04:45:55,-1,nan,nan,nan,nan,1,3,nan,nan,1701,0.69158095,-5.8681097,354.78058,93.319641,nan,609.291,51.3241,-32.7212,nan,nan
1980-10-30 04:47:16,-1,nan,nan,nan,nan,1,3,nan,nan,1701,0.69156659,-5.8682537,354.76944,93.320206,nan,600.761,43.5778,-24.7263,nan,nan
1980-10-30 04:48:37,-1,nan,nan,nan,nan,1,3,nan,nan,1701,0.69155937,-5.8683262,354.75409,93.320496,nan,607.668,45.0987,-34.9797,nan,nan
1980-10-30 04:49:58,-1,nan,nan,nan,nan,1,3,nan,nan,1701,0.69155216,-5.8683987,354.74268,93.320786,nan,599.096,44.5477,-32.3775,nan,nan
1980-10-30 04:51:19,1,6.66,-13.48,1.21,1.21528,1,1,80885.8,219341.0,1701,0.6915378,-5.8685436,354.73154,93.321365,6.94145,593.384,45.3734,-27.6774,36.5421,60.1752
1980-10-30 04:52:40,1,5.46,-14.13,2.43,0.476025,1,1,119638.0,266222.0,1701,0.69153064,-5.8686161,354.72009,93.321655,7.82207,595.862,41.4155,-33.6447,44.4418,66.2949
1980-10-30 04:54:01,1,8.62,-11.41,-1.06,2.35688,1,1,118926.0,283164.0,1701,0.69151628,-5.8687601,354.70895,93.32222,7.68932,562.857,8.71115,11.0153,44.3094,68.3718
1980-10-30 04:55:22,1,8.63,-11.83,-0.36,0.764591,1,1,89525.2,244135.0,1701,0.69150907,-5.8688326,354.69751,93.32251,7.26134,580.284,30.0056,-12.505,38.4442,63.4852
1980-10-30 04:56:43,1,9.44,-10.94,-0.69,0.771816,1,1,90139.2,287273.0,1701,0.69150192,-5.8689051,354.68219,93.3228,8.07004,573.026,24.6904,-9.11078,38.5758,68.866
1980-10-30 04:59:25,1,10.26,-8.9,0.3,2.3779,1,1,98043.7,309206.0,1701,0.69148034,-5.8691225,354.65961,93.323669,8.44432,571.073,28.0703,-5.8819,40.2316,71.4466
1980-10-30 05:00:46,1,11.75,-5.02,-2.74,1.40517,1,1,70289.2,249848.0,1701,0.69147313,-5.869195,354.64819,93.323959,6.42501,553.737,9.10628,-11.0455,34.0645,64.2238
1980-10-30 05:02:07,1,12.07,-5.18,-2.28,1.96094,1,1,83924.8,278945.0,1701,0.69145876,-5.869339,354.63702,93.324524,7.78627,558.451,1.14732,2.76923,37.2223,67.8605
1980-10-30 05:03:28,1,12.1,-4.87,0.46,0.671193,1,1,78646.8,295414.0,1701,0.69145161,-5.8694115,354.62561,93.324814,7.66514,551.323,-6.19288,-18.9283,36.0328,69.835
1980-10-30 05:04:49,1,12.47,-5.03,0.38,0.542033,1,1,99081.4,296657.0,1701,0.6914444,-5.8694839,354.61417,93.325104,7.97554,552.364,-1.7515,-13.9912,40.444,69.9818
1980-10-30 05:06:10,1,12.72,-3.91,0.06,0.878009,1,1,80662.6,293269.0,1701,0.69143003,-5.8696289,354.59912,93.325684,7.89314,550.526,-18.4173,-17.414,36.4917,69.5811
1980-10-30 05:07:31,1,13.15,-2.67,-1.06,0.494975,1,1,93989.8,303054.0,1701,0.69142282,-5.8697004,354.58771,93.325974,7.61009,552.739,-18.4602,-2.36284,39.3911,70.7324
1980-10-30 05:08:52,1,13.05,-2.34,-0.54,0.973293,1,1,77729.1,299400.0,1701,0.69141561,-5.8697729,354.57626,93.326263,7.66374,549.455,-13.4781,-14.6523,35.822,70.3046
1980-10-30 05:10:13,1,12.79,0.27,-0.42,2.06364,1,1,100082.0,301547.0,1701,0.69140124,-5.8699179,354.56512,93.326843,8.14802,551.667,-38.6366,-10.1155,40.6476,70.5562
1980-10-30 05:11:34,1,11.69,-7.45,-0.06,0.842496,1,1,77882.8,279027.0,1701,0.69139409,-5.8699903,354.55371,93.327133,8.39979,561.211,13.0143,-15.5264,35.8574,67.8705
1980-10-30 05:12:55,1,12.26,-5.66,-1.26,0.955615,1,1,94689.1,323507.0,1701,0.69138688,-5.8700628,354.54227,93.327423,8.2558,555.42,4.88267,-8.52732,39.5374,73.0802
1980-10-30 05:14:16,1,12.86,-3.13,-2.22,0.400125,1,1,92467.0,267789.0,1701,0.69137251,-5.8702068,354.52722,93.328003,7.62791,551.511,-20.4908,5.11861,39.0707,66.4897
1980-10-30 05:15:37,1,12.86,-3.39,-2.02,1.05019,1,1,73346.5,295105.0,1701,0.6913653,-5.8702793,354.51581,93.328293,7.44089,549.964,-7.31704,-5.09118,34.7975,69.7985
1980-10-30 05:16:58,1,12.56,-1.75,-2.63,1.87483,1,1,80605.1,281012.0,1701,0.69135809,-5.8703518,354.50436,93.328568,7.76962,553.806,-7.4446,0.382131,36.4787,68.1115
1980-10-30 05:18:19,1,12.26,-1.44,-2.61,2.21443,1,1,49295.4,289862.0,1701,0.69134372,-5.8704967,354.49323,93.329147,7.12963,549.903,-32.1197,7.33278,28.5273,69.1757
1980-10-30 05:19:40,1,8.89,-11.09,0.61,2.22322,1,1,130332.0,322953.0,1701,0.69133651,-5.8705692,354.48178,93.329437,7.45303,600.059,53.425,-38.8522,46.3856,73.0176
1980-10-30 05:21:01,1,10.84,-7.92,-0.2,1.53818,1,1,92033.0,301270.0,1701,0.69132215,-5.8707132,354.47064,93.330017,7.30248,559.277,12.391,-17.3922,38.9789,70.5238
1980-10-30 05:22:22,1,7.18,-12.41,1.07,2.19513,1,1,129319.0,306230.0,1701,0.691315,-5.8707857,354.45532,93.330307,7.66149,604.698,57.7995,-34.7417,46.205,71.1019
1980-10-30 05:23:43,1,11.25,-7.9,-0.7,0.759276,1,1,96039.5,321819.0,1701,0.69130778,-5.8708582,354.44388,93.330597,8.28597,564.46,15.5706,-9.17422,39.8183,72.8893
1980-10-30 06:24:08,-1,nan,nan,nan,nan,1,3,nan,nan,1701,0.69086903,-5.8752699,353.91077,93.348251,nan,567.155,-35.4409,29.3862,nan,nan
1980-10-30 06:25:29,-1,nan,nan,nan,nan,1,3,nan,nan,1701,0.69086182,-5.8753424,353.89932,93.348541,nan,561.004,-30.5518,21.0186,nan,nan
1980-10-30 06:26:50,1,10.97,-1.58,-8.54,1.42832,1,1,110189.0,354639.0,1701,0.69085461,-5.8754139,353.884,93.348831,8.05928,565.362,-35.4547,35.4403,42.6508,76.5158
1980-10-30 06:28:11,1,10.6,-2.16,-9.09,1.29742,1,1,131993.0,374547.0,1701,0.69084024,-5.8755589,353.87286,93.349411,8.6203,570.963,-41.6769,32.6746,46.6803,78.6341
1980-10-30 06:29:34,1,11.28,-2.7,-8.23,1.26953,1,1,103907.0,357753.0,1701,0.69083303,-5.8756313,353.86142,93.349701,9.1463,567.384,-14.4638,34.1818,41.4172,76.851
1980-10-30 06:30:55,1,9.17,-0.07,-10.62,0.954882,1,1,103231.0,352223.0,1701,0.69082582,-5.8757038,353.85001,93.349991,8.64266,579.633,-41.3301,48.6405,41.2822,76.2548
1980-10-30 06:32:16,1,12.6455,-6.20909,-2.39091,2.40086,1,1,122307.0,442185.0,1701,0.69081146,-5.8758478,353.83887,93.350571,9.75304,552.072,6.66852,-21.2603,44.9349,85.4397
1980-10-30 06:33:37,1,12.81,-6.87,-1.52,0.525928,1,1,110572.0,368763.0,1701,0.69080424,-5.8759203,353.82352,93.350861,8.07231,556.493,4.99263,-10.1708,42.7249,78.0246
1980-10-30 06:34:58,1,13.02,-5.11,-2.49,0.923797,1,1,108904.0,334523.0,1701,0.69079703,-5.8759928,353.8121,93.351151,7.6873,551.009,-10.9347,-8.44161,42.4014,74.3141
1980-10-30 06:36:19,1,11.4,3.77,-3.36,1.74198,1,1,211491.0,394385.0,1701,0.69078267,-5.8761368,353.80096,93.35173,10.2595,573.022,-107.057,-13.9,59.0886,80.6897
1980-10-30 06:37:40,1,12.93,-1.88,1.17,1.36521,1,1,115127.0,387254.0,1701,0.69077545,-5.8762093,353.78952,93.35202,7.8262,548.943,-32.0498,-18.8048,43.5959,79.9569
1980-10-30 06:39:01,1,12.46,-3.3,-1.06,1.69965,1,1,144511.0,399916.0,1701,0.69076103,-5.8763542,353.77838,93.3526,8.1758,550.806,-28.6836,-18.0081,48.8436,81.2535
1980-10-30 06:40:22,1,9.9,-7.03,-5.47,2.29656,1,1,150285.0,374917.0,1701,0.69075388,-5.8764267,353.76697,93.35289,7.76704,565.066,-8.06343,14.3399,49.81,78.673
1980-10-30 06:41:43,1,9.76,-2.9,-8.92,1.21161,1,1,130986.0,419075.0,1701,0.69074667,-5.8764982,353.75162,93.35318,8.60752,584.832,-26.7119,44.0272,46.5018,83.1771
1980-10-30 06:43:04,1,7.95,-3.55,-10.62,0.754056,1,1,136935.0,353295.0,1701,0.69073224,-5.8766432,353.74048,93.35376,8.24145,602.241,-25.8571,57.0612,47.5461,76.3707
1980-10-30 06:44:25,1,9.57,-0.16,-9.09,1.14604,1,1,140519.0,429680.0,1701,0.69072509,-5.8767157,353.72906,93.35405,9.31462,584.212,-50.825,42.7661,48.1642,84.2229
1980-10-30 06:45:46,1,11.87,2.2,-3.84,1.46236,1,1,128717.0,379355.0,1701,0.69071788,-5.8767881,353.71762,93.35434,8.4588,563.359,-57.064,14.8554,46.0973,79.1372
1980-10-30 06:47:07,1,8.56,-5.03,-5.27,6.33645,1,1,194023.0,294849.0,1701,0.69070345,-5.8769321,353.70648,93.354919,6.79782,562.647,-61.204,-2.06822,56.5959,69.7682
1980-10-30 06:48:28,1,7.04545,-7.04545,-9.82727,1.74763,1,1,128282.0,374090.0,1701,0.6906963,-5.8770046,353.69507,93.355209,8.1324,612.309,20.4242,37.4008,46.0193,78.5862
1980-10-30 06:51:10,1,3.44545,-12.7455,-4.64545,3.8915,1,1,188547.0,477436.0,1701,0.69067466,-5.8772211,353.66858,93.356079,7.56152,616.401,47.1215,-1.31332,55.7915,88.78
1980-10-30 06:52:31,1,-1.3,-14.7909,1.03636,2.98899,1,1,208674.0,371918.0,1701,0.69066751,-5.8772936,353.65717,93.356369,6.90903,629.155,62.2804,-30.2827,58.6938,78.3577
1980-10-30 06:53:52,1,-0.581818,-15.3364,1.63636,1.49263,1,1,176384.0,452154.0,1701,0.6906603,-5.8773661,353.64572,93.356659,9.37197,638.177,52.1906,-47.3707,53.962,86.3975
1980-10-30 06:55:13,1,-1.24545,-15.1727,-1.68182,3.29994,1,1,209171.0,384819.0,1701,0.69064587,-5.877511,353.63458,93.357239,8.30348,629.082,60.3771,-28.1334,58.7636,79.7051
1980-10-30 06:56:34,1,-4.14545,-14.5545,-5.27273,1.85218,1,1,183173.0,372328.0,1701,0.69063866,-5.8775826,353.62317,93.357529,8.28538,659.941,53.7336,-3.21791,54.9907,78.4008
1980-10-30 06:57:55,1,-3.80909,-14.1545,-6.06364,1.65699,1,1,177438.0,449672.0,1701,0.69063151,-5.877655,353.61172,93.357819,9.61235,663.746,40.1934,18.9117,54.1229,86.16
1980-10-30 06:59:16,1,4.08182,-13.2091,3.85455,3.3682,1,1,176239.0,393875.0,1701,0.69061708,-5.8778,353.59668,93.358398,7.81988,614.029,51.7966,-62.3231,53.9397,80.6375
1980-10-30 07:00:37,1,8.11,-12.31,1.8,0.985799,1,1,133883.0,421849.0,1701,0.69060987,-5.8778725,353.58527,93.358704,8.33881,598.708,40.333,-29.8193,47.0133,83.4519
1980-10-30 07:01:58,1,9.22,-11.53,-2.5,0.913072,1,1,139853.0,393789.0,1701,0.69060272,-5.877944,353.57385,93.358994,7.39962,586.563,25.7135,-2.06974,48.05,80.6287
1980-10-30 07:03:19,1,8.8,-8.32,-7.88,1.05413,1,1,127505.0,434605.0,1701,0.6905883,-5.878089,353.56271,93.359573,8.53931,586.315,13.0645,18.0838,45.8799,84.7042
1980-10-30 07:04:40,1,6.28182,-6.31818,-11.4545,1.12006,1,1,150388.0,415168.0,1701,0.69058108,-5.8781614,353.55127,93.359863,8.23161,613.284,-8.80159,49.9173,49.8269,82.7884
1980-10-30 07:06:01,1,5.95455,-5.81818,-11.5909,1.04763,1,1,143299.0,390931.0,1701,0.69056672,-5.8783064,353.54013,93.360443,8.10533,613.763,-6.69877,50.3228,48.6384,80.3356
1980-10-30 07:07:22,1,4.16364,-3.42727,-12.7545,1.3802,1,1,131833.0,422853.0,1701,0.69055951,-5.8783779,353.52481,93.360733,8.16887,619.724,-17.4782,56.2828,46.6519,83.5511
1980-10-30 07:08:43,1,4.55455,-4.48182,-12.5545,1.57569,1,1,123207.0,375901.0,1701,0.69055229,-5.8784504,353.51337,93.361023,7.28931,613.582,-10.2474,56.3547,45.0999,78.7761
1980-10-30 07:12:46,1,6.24286,-2.84286,-11.4857,1.66403,1,1,119968.0,398740.0,1701,0.6920768,-6.0474267,353.1846,93.067413,8.11257,626.261,-27.3465,61.893,44.5031,81.134
1980-10-30 07:15:17,1,10.63,-7.55,-4.06,3.31708,1,1,344645.0,248094.0,1701,0.69050187,-5.8789568,353.45682,93.363068,7.26968,610.274,-46.6995,51.8663,75.43,63.998
1980-10-30 07:15:18,1,10.7727,-7.51818,-3.60909,3.49996,1,1,179366.0,305663.0,1701,0.69050908,-5.8788843,353.45654,93.362778,6.86001,595.404,-6.87644,45.6072,54.4162,71.0361
1980-10-30 07:15:28,1,11.0,-7.73636,-1.90909,3.83138,1,1,131259.0,349455.0,1701,0.69050187,-5.8789568,353.45291,93.363068,7.00932,570.341,9.99605,2.62574,46.5503,75.9545
1980-10-30 07:16:49,1,10.8727,-9.06364,0.863636,1.40236,1,1,125779.0,414063.0,1701,0.69049466,-5.8790293,353.4415,93.363358,8.08338,562.689,16.96,-27.137,45.5682,82.6782
1980-10-30 07:18:10,1,10.97,-8.22,-1.87,1.75721,1,1,138115.0,386300.0,1701,0.69048029,-5.8791742,353.43036,93.363937,7.8046,558.099,7.24122,-12.093,47.7506,79.8583
1980-10-30 07:19:31,1,5.29,-4.89,-9.51,5.34964,1,1,156736.0,358496.0,1701,0.69047308,-5.8792467,353.41891,93.364227,6.90098,582.289,18.4228,15.1184,50.8678,76.9308
1980-10-30 07:20:52,-1,nan,nan,nan,nan,1,-3,nan,nan,1701,0.69046587,-5.8793192,353.4075,93.364517,nan,620.514,6.28304,46.9474,nan,nan
1980-10-30 07:22:13,1,9.45,-7.69,6.43,2.03458,1,1,126274.0,432430.0,1701,0.6904515,-5.8794632,353.39636,93.365097,7.41972,573.414,3.07732,-84.5333,45.6577,84.492
1980-10-30 07:23:34,1,12.53,-5.14,-2.06,1.54366,1,1,105941.0,457287.0,1701,0.69044429,-5.8795357,353.38101,93.365387,8.06425,566.808,-9.42915,-1.47763,41.8206,86.8865
1980-10-30 07:24:55,1,11.82,0.24,-5.5,0.669328,1,1,143382.0,418398.0,1701,0.69043708,-5.8796082,353.3696,93.365692,8.45204,568.567,-57.755,11.8211,48.6525,83.1099
1980-10-30 07:26:16,1,8.60909,4.46364,-8.22727,1.70124,1,1,139729.0,423589.0,1701,0.69042265,-5.8797531,353.35846,93.366272,8.02406,603.234,-68.5385,42.1843,48.0287,83.6239
1980-10-30 07:27:37,1,8.91,6.46,-6.39,0.670969,1,1,154097.0,408712.0,1701,0.69041544,-5.8798246,353.34705,93.366562,7.74845,588.161,-90.9373,10.6266,50.4376,82.1422
1980-10-30 07:28:58,1,8.71818,3.91818,-8.52727,1.88425,1,1,127689.0,397108.0,1701,0.69040829,-5.8798971,353.3356,93.366852,7.59614,587.065,-65.4589,36.1407,45.913,80.9678
1980-10-30 07:30:19,1,9.17,6.45,-4.67,1.14835,1,1,167481.0,440145.0,1701,0.69039387,-5.8800421,353.32446,93.367432,7.92184,577.274,-89.4223,9.27636,52.5824,85.2424
1980-10-30 07:31:40,1,9.18,6.04,-3.81,2.2744,1,1,181238.0,333470.0,1701,0.69038665,-5.8801146,353.30914,93.367722,5.97235,573.823,-86.9681,4.11601,54.6994,74.1969
1980-10-30 07:33:01,1,11.36,4.88,-2.76,1.44928,1,1,143785.0,433571.0,1701,0.69037229,-5.8802595,353.298,93.368301,8.31371,562.664,-79.1823,-14.7231,48.7209,84.6034
1980-10-30 07:34:22,1,11.64,3.17,-2.44,2.38849,1,1,124630.0,428210.0,1701,0.69036508,-5.880331,353.28656,93.368591,7.1906,556.495,-45.5562,-9.47958,45.3596,84.0787
1980-10-30 07:35:43,1,11.96,3.86,2.02,1.11194,1,1,161832.0,431170.0,1701,0.69035786,-5.8804035,353.27515,93.368881,7.9904,562.192,-72.807,-37.6976,51.6881,84.3688
1980-10-30 07:37:04,1,9.21,5.06,6.35,2.98091,1,1,160443.0,467640.0,1701,0.69034344,-5.8805485,353.26401,93.369476,7.64261,587.578,-92.6097,-89.9304,51.4658,87.8646
1980-10-30 07:38:25,1,5.97273,7.95455,-6.75455,4.23402,1,1,220074.0,423885.0,1701,0.69033623,-5.880621,353.25259,93.369766,8.15314,603.689,-117.28,-9.5083,60.2757,83.6531
1980-10-30 07:39:46,1,3.70909,10.3545,-6.58182,1.26033,1,1,182383.0,470824.0,1701,0.69032907,-5.8806934,353.23724,93.370056,8.57711,624.64,-119.748,9.05242,54.8719,88.1631
1980-10-30 07:41:07,-1,nan,nan,nan,nan,1,3,nan,nan,1701,0.69031465,-5.8808374,353.2261,93.370636,nan,590.326,-106.579,-2.38847,nan,nan
1980-10-30 07:42:28,-1,nan,nan,nan,nan,1,3,nan,nan,1701,0.69030744,-5.8809099,353.21469,93.370926,nan,612.92,-125.208,-6.06628,nan,nan
1980-10-30 07:46:31,-1,nan,nan,nan,nan,1,3,nan,nan,1701,0.69027865,-5.8811998,353.18069,93.372086,nan,567.907,-86.4723,-67.2502,nan,nan
1980-10-30 07:47:52,-1,nan,nan,nan,nan,1,3,nan,nan,1701,0.69027144,-5.8812723,353.16534,93.372375,nan,613.414,-120.554,6.82059,nan,nan
1980-10-30 07:49:13,-1,nan,nan,nan,nan,1,3,nan,nan,1701,0.69025707,-5.8814163,353.15424,93.372971,nan,574.166,-102.326,-17.6814,nan,nan
1980-10-30 07:50:34,-1,nan,nan,nan,nan,1,3,nan,nan,1701,0.69024986,-5.8814888,353.14279,93.37326,nan,583.908,-107.722,-3.94308,nan,nan
1980-10-30 07:51:55,1,9.91,8.15,-3.52,1.15282,1,1,178482.0,487940.0,1701,0.69024265,-5.8815613,353.13138,93.37355,9.07402,578.773,-98.8194,2.38801,54.2819,89.7514
1980-10-30 07:53:16,1,10.35,7.17,-2.71,2.57323,1,1,214123.0,492570.0,1701,0.69022822,-5.8817062,353.12024,93.37413,9.51182,566.265,-75.0518,1.0645,59.4551,90.1762
1980-10-30 07:54:37,1,8.29,8.1,-2.24,4.93085,1,1,163260.0,492965.0,1701,0.69022101,-5.8817778,353.1088,93.37442,8.84426,573.923,-110.608,-14.0973,51.9156,90.2124
1980-10-30 07:55:58,1,1.19091,10.7818,-7.1,2.55708,1,1,201999.0,427633.0,1701,0.69021386,-5.8818502,353.09738,93.37471,8.18121,639.835,-135.913,12.8493,57.7474,84.0221
1980-10-30 07:57:19,1,8.52727,9.61818,0.563636,2.42531,1,1,218115.0,457098.0,1701,0.69019943,-5.8819952,353.08234,93.37529,8.83233,589.944,-119.325,-2.34445,60.0068,86.8685
1980-10-30 07:58:40,1,7.09091,10.1,1.29091,2.6347,1,1,176110.0,371030.0,1701,0.69019222,-5.8820677,353.07089,93.37558,6.60757,622.247,-148.327,-36.2703,53.92,78.2641
1980-10-30 08:00:01,-1,nan,nan,nan,nan,1,-3,nan,nan,1701,0.69017786,-5.8822126,353.05978,93.376175,nan,573.384,-105.452,-24.8055,nan,nan
1980-10-30 08:01:22,1,10.0455,-9.20909,-6.05455,2.53097,1,1,187481.0,438865.0,1701,0.69017065,-5.8822842,353.04834,93.376465,9.74865,570.019,-13.531,15.336,55.6335,85.1183
1980-10-30 08:02:43,1,12.59,-3.98,-5.26,1.13265,1,1,160902.0,453381.0,1701,0.69016343,-5.8823566,353.03693,93.376755,8.41653,563.458,-32.6386,16.4718,51.5394,86.5147
1980-10-30 08:04:04,1,11.31,5.96,-3.5,1.66532,1,1,153469.0,447871.0,1701,0.69014901,-5.8825016,353.02579,93.377335,8.52767,561.829,-84.15,4.79483,50.3349,85.9873
1980-10-30 08:05:25,1,10.93,6.92,-3.99,1.07824,1,1,159969.0,437075.0,1701,0.6901418,-5.8825741,353.01044,93.377625,8.65494,570.831,-101.989,12.8774,51.3897,84.9446
1980-10-30 08:06:46,1,12.83,4.54,-2.03,1.32083,1,1,167352.0,409141.0,1701,0.69013458,-5.8826456,352.99902,93.37793,8.47977,563.137,-97.1346,0.0333166,52.5621,82.1854
1980-10-30 08:08:07,1,11.77,4.8,5.25,1.95105,1,1,179613.0,432406.0,1701,0.69012016,-5.8827906,352.98788,93.37851,8.35366,566.816,-109.83,-56.8439,54.4536,84.4897
1980-10-30 08:09:28,1,11.39,1.52,7.93,2.41093,1,1,190015.0,497323.0,1701,0.69011295,-5.882863,352.97647,93.378799,10.4885,544.335,-72.25,-59.6212,56.0082,90.6102
1980-10-30 08:10:49,1,12.99,0.03,5.08,2.1257,1,1,123669.0,420228.0,1701,0.69010574,-5.8829355,352.96503,93.379089,7.71384,546.558,-58.4636,-62.03,45.1844,83.2915
1980-10-30 08:12:10,1,12.59,-5.58,4.23,1.39879,1,1,156420.0,383961.0,1701,0.69009131,-5.8830795,352.95392,93.379684,7.55729,548.692,-28.5668,-39.5628,50.8165,79.6162
1980-10-30 08:13:31,1,13.22,-5.6,-1.09,1.93662,1,1,144624.0,479467.0,1701,0.6900841,-5.883152,352.93857,93.379974,9.16665,554.42,-32.3995,-26.6669,48.8627,88.9687
1980-10-30 08:14:52,1,12.55,-6.92,-3.75,1.92109,1,1,141644.0,443381.0,1701,0.69007689,-5.8832245,352.92715,93.380264,8.90963,557.869,-25.1697,-5.07538,48.3568,85.5552
1980-10-30 08:16:13,1,11.15,-7.78,-6.25,1.04144,1,1,134889.0,427854.0,1701,0.69006252,-5.8833685,352.91602,93.380844,9.06122,571.337,-6.69245,9.52647,47.1896,84.0438
1980-10-30 08:17:34,1,10.64,-8.81,-6.07,0.556237,1,1,143107.0,470158.0,1701,0.69005531,-5.883441,352.90457,93.381134,8.91539,574.04,-12.2878,17.7742,48.6059,88.1008
1980-10-30 08:18:55,1,10.96,-9.05,-4.97,1.86896,1,1,166114.0,461878.0,1701,0.6900481,-5.8835135,352.89316,93.381439,9.40061,577.657,-14.3347,19.7744,52.3673,87.3216
1980-10-30 08:20:16,1,9.07,-10.12,-6.65,3.763,1,1,148602.0,473629.0,1701,0.69003367,-5.8836584,352.88202,93.382019,9.76645,572.537,5.19368,-6.87175,49.5302,88.4254
1980-10-30 08:21:37,1,11.9,-7.84,-5.72,1.09362,1,1,129993.0,481463.0,1701,0.69002646,-5.8837299,352.8667,93.382309,9.66616,568.089,-11.0943,3.40966,46.3253,89.1537
1980-10-30 08:22:58,1,11.51,-4.89,-7.83,2.09473,1,1,125977.0,459359.0,1701,0.69001925,-5.8838024,352.85526,93.382599,9.11581,567.773,-27.6414,13.3954,45.604,87.0831
1980-10-30 08:24:19,1,10.13,-9.75,-6.1,2.15884,1,1,140547.0,462486.0,1701,0.69000483,-5.8839474,352.84415,93.383194,8.97177,594.332,18.2073,12.6543,48.1691,87.379
1980-10-30 08:25:40,1,11.01,-5.35,-8.44,0.794858,1,1,133161.0,419559.0,1701,0.68999761,-5.8840199,352.8327,93.383484,8.11827,572.028,-27.6089,34.1898,46.8864,83.2251
1980-10-30 08:27:01,1,11.45,-8.09,3.33,3.66872,1,1,136001.0,425368.0,1701,0.68998319,-5.8841639,352.82156,93.384064,8.12026,555.163,-15.6551,-39.9318,47.3838,83.7993
1980-10-30 08:28:22,1,10.28,-9.53,5.53,1.19407,1,1,147564.0,485106.0,1701,0.68997598,-5.8842363,352.81015,93.384354,8.66647,566.355,2.65067,-60.492,49.357,89.4903
1980-10-30 08:29:43,1,10.34,-7.99,7.72,1.03194,1,1,123175.0,439035.0,1701,0.68996876,-5.8843088,352.7948,93.384644,7.64728,566.503,-14.1672,-83.2907,45.0941,85.1349
1980-10-30 08:31:04,1,11.02,-7.36,6.93,1.79223,1,1,144422.0,438522.0,1701,0.6899544,-5.8844528,352.78369,93.385239,7.95683,559.695,-21.343,-65.6104,48.8286,85.0851
1980-10-30 08:32:25,1,9.06,-9.53,8.64,0.836002,1,1,144436.0,409497.0,1701,0.68994719,-5.8845253,352.77225,93.385529,7.97971,579.802,-1.1845,-80.2249,48.8309,82.2211
1980-10-30 08:33:46,1,8.06364,-9.47273,9.32727,0.912992,1,1,176904.0,511553.0,1701,0.68993998,-5.8845978,352.76083,93.385818,9.98208,578.79,-7.99123,-83.3139,54.0415,91.8974
1980-10-30 08:35:07,1,12.16,-7.55,3.12,3.83125,1,1,152965.0,434280.0,1701,0.68992555,-5.8847427,352.74969,93.386398,8.50375,564.21,-13.3153,-68.3613,50.2521,84.6726
1980-10-30 08:36:28,1,13.24,-5.29,3.51,0.858021,1,1,145651.0,410624.0,1701,0.68991834,-5.8848143,352.73828,93.386703,8.27408,549.545,-36.6464,-40.4191,49.036,82.3342
1980-10-30 08:37:49,1,9.95,-6.96,8.84,0.775435,1,1,144262.0,445484.0,1701,0.68991113,-5.8848867,352.72293,93.386993,8.92381,570.992,-23.5917,-82.1085,48.8016,85.7578
1980-10-30 08:39:10,1,9.09,-7.77,9.25,1.25758,1,1,146588.0,479412.0,1701,0.6898967,-5.8850317,352.71179,93.387573,8.81959,570.938,-20.5657,-85.1846,49.1934,88.9636
1980-10-30 08:40:31,1,11.99,-7.65,1.12,3.11368,1,1,154187.0,479183.0,1701,0.68988949,-5.8851042,352.70038,93.387863,9.45862,561.546,-15.2204,-51.9135,50.4524,88.9424
1980-10-30 08:41:52,1,12.03,-7.14,0.93,3.43607,1,1,183922.0,423511.0,1701,0.68988228,-5.8851757,352.68893,93.388153,8.75176,552.238,-43.1559,-50.4037,55.103,83.6162
1980-10-30 08:43:13,1,11.88,-8.76,-0.85,0.771038,1,1,147428.0,420032.0,1701,0.68986785,-5.8853207,352.67783,93.388748,8.24206,557.804,-12.8968,-26.2259,49.3342,83.272
1980-10-30 08:44:34,1,10.53,-8.63,-5.15,1.36407,1,1,162853.0,469019.0,1701,0.68986064,-5.8853931,352.66638,93.389038,9.06074,566.996,-8.62136,-0.943209,51.8508,87.994
1980-10-30 08:45:55,1,5.0,-4.83,-12.84,1.00623,1,1,178609.0,419280.0,1701,0.68985343,-5.8854656,352.65106,93.389328,6.92494,611.794,-39.4202,54.6278,54.3012,83.1975
1980-10-30 08:47:16,-1,nan,nan,nan,nan,1,4,nan,nan,1701,0.68983907,-5.8856096,352.63992,93.389908,nan,nan,nan,nan,nan,nan
1980-10-30 08:48:37,1,10.51,-6.93,-7.51,1.1153,1,1,162544.0,498650.0,1701,0.68983185,-5.8856821,352.62851,93.390213,9.02316,569.716,-26.1341,15.3425,51.8017,90.731
1980-10-30 08:49:58,1,8.05,-10.58,-6.65,1.7328,1,1,168262.0,511031.0,1701,0.68982464,-5.8857546,352.61707,93.390503,9.62397,579.158,8.7191,-5.58472,52.7048,91.8505
1980-10-30 08:51:19,1,9.3,-8.66,-7.88,1.97636,1,1,167640.0,501220.0,1701,0.68981022,-5.8858986,352.60593,93.391083,9.50972,591.28,-2.74326,20.5087,52.6074,90.9645
1980-10-30 08:52:40,1,9.88,-8.01,-7.64,1.8716,1,1,157716.0,506469.0,1701,0.689803,-5.8859711,352.59451,93.391373,9.0177,581.128,-4.75901,7.76984,51.0266,91.4396
1980-10-30 08:54:01,1,10.06,-8.65,-4.85,2.48383,1,1,143819.0,535214.0,1701,0.68978858,-5.886116,352.58337,93.391968,9.66951,566.318,-11.3848,-8.72879,48.7266,93.9986
1980-10-30 08:55:22,1,9.39,-9.69,-6.3,1.32959,1,1,154946.0,478186.0,1701,0.68978137,-5.8861885,352.56805,93.392258,8.50747,580.598,-4.13115,12.9263,50.5764,88.8498
1980-10-30 08:56:43,1,11.32,-9.53,-0.08,1.5203,1,1,181186.0,532667.0,1701,0.68977416,-5.88626,352.55661,93.392548,10.2306,559.293,-12.6426,-30.0586,54.6915,93.7747
1980-10-30 08:58:04,1,12.75,-5.01,-3.98,0.92358,1,1,132533.0,513293.0,1701,0.68975973,-5.886405,352.54547,93.393127,9.4099,559.222,-31.3352,3.48689,46.7757,92.0535